Regional Weather Roundup
Issued by NWS

Home | Current Version | Previous Version | Text Only | Print | Product List | Glossary Off
Versions: 1 2 3 4 5 6 7 8 9 10 11 12 13 14 15 16 17 18 19 20 21 22 23 24 25 26 27 28 29 30 31 32 33 34 35 36 37 38 39 40 41 42 43 44 45 46 47 48 49 50

000
ASUS45 KSLC 290510
RWRUT

UTAH REGIONAL WEATHER ROUNDUP
NATIONAL WEATHER SERVICE SALT LAKE CITY UT
1100 PM MDT TUE JUL 28 2015

UTZ001>011-023>025-290600-

NORTHERN UTAH

CITY           SKY/WX    TMP DP  RH WIND       PRES   REMARKS
BRIGHAM CITY   CLEAR     65  36  33 CALM      30.25R
HILL AFB       CLEAR     63  26  24 SE12      30.26R
LOGAN          CLEAR     58  36  43 CALM      30.27R
OGDEN          CLEAR     62  30  29 S9        30.24R
PROVO AIRPORT  CLEAR     66  37  34 CALM      30.25R
SALT LAKE CITY CLEAR     64  34  32 SW3       30.24R
VERNAL         CLEAR     69  14  12 N10       30.23R
WENDOVER       CLEAR     66  23  19 CALM      30.25R
HEBER CITY     CLEAR     55  28  35 CALM      30.30R
WEST JORDAN    CLEAR     63  30  29 W6        30.26R

$$

UTZ012>022-026-027-290600-

SOUTHERN/CENTRAL UTAH

CITY           SKY/WX    TMP DP  RH WIND       PRES   REMARKS
BLANDING       PTCLDY    66  28  23 CALM      30.27R
BRYCE CANYON   CLEAR     56  30  37 NW6       30.39R
CEDAR CITY     CLEAR     66  27  23 NE6       30.22R
DELTA          CLEAR     67  26  21 N8        30.23R
HANKSVILLE     CLEAR     77  27  15 N10       30.14R
MILFORD        CLEAR     68  24  19 N14       30.20R
MOAB/CYNLANDS  CLEAR     76  27  16 NW7       30.10R
PRICE          CLEAR     69  25  19 NW8       30.26R
ST GEORGE      CLEAR     90  30  12 CALM      30.00R
KANAB          CLEAR     73  30  20 N10       30.20R

$$

REGIONAL REPORTS     COLORADO/ARIZONA

CITY           SKY/WX    TMP DP  RH WIND       PRES   REMARKS
CRAIG, CO      CLEAR     56  33  42 CALM      30.30R
GRAND JUNCTION CLEAR     72  34  24 CALM      30.14R
RIFLE          CLEAR     65  29  25 SE5       30.22R
MONTROSE       CLEAR     66  40  38 SE8       30.23R
CORTEZ         CLEAR     62  38  40 VRB5      30.21R
PAGE, AZ       CLEAR     86  19   8 NW5       30.06R
GRAND CANYON   PTCLDY    55  23  28 CALM      30.27R
KINGMAN        CLEAR     78  34  20 S10       30.03R
FLAGSTAFF      CLOUDY    66  40  38 CALM      30.32R

$$

REGIONAL REPORTS    NEVADA/IDAHO/WYOMING

CITY           SKY/WX    TMP DP  RH WIND       PRES   REMARKS
LAS VEGAS, NV  CLEAR     95  28   9 CALM      29.87R
ELY            CLEAR     63  25  23 N16       30.29R
ELKO           CLEAR     63  17  17 E3        30.23R
POCATELLO, ID  CLEAR     55  36  48 E6        30.30R
BURLEY         CLEAR     51  41  68 CALM      30.26R
EVANSTON, WY   CLEAR     53  28  38 N10       30.40R
ROCK SPRINGS   CLEAR     56  14  19 E5        30.36R
KEMMERER       CLEAR     46  28  49 N12       30.40S

$$



USA.gov is the U.S. government's official web portal to all federal, state and local government web resources and services.